sat.trackr.live / text

‹ back to catalog

TRANSPORTER-14 OBJECT E

NORAD 64532 · 2025-135E

PAYLOAD ACTIVE UNKNOWN

§ Identity

Operator
Country
TBD
Launch date
2025-06-23
Launch site
AFWTR
Launch vehicle
Mass (kg)
RCS (m²)

External: N2YO · Heavens-Above · Gunter

§ Orbital elements

Epoch: 2026-09-21T20:15:56.477088Z

Period
94.24 min
Inclination
97.4813°
Eccentricity
0.0004335
Mean motion
15.28006125 rev/d
Perigee alt
478.8 km
Apogee alt
484.7 km
Semi-major
6,859.9 km
B*
2.9216e-4
RAAN
21.2536°
Arg perigee
169.6577°
Mean anomaly
190.4752°
Rev number
6,967

§ Raw data

TRANSPORTER-14 OBJECT E1 64532U 25135E   26264.84440367  .00007909  00000+0  29216-3 0  99992 64532  97.4813  21.2536 0004335 169.6577 190.4752 15.28006125 69675

JSON: /api/v1/satellites/64532 · /tle

For live sub-satellite position, see the globe view (requires WebGL).

§ Visibility from observer

Set your observer location to see the next 7 days of passes ≥ 10°. The values pass through the URL so the page stays shareable.

No JS? Fill the form by hand. The geolocation button needs JavaScript.